Volver al catálogo

LANDSAT 9

ActivoCienciaSSO
NORAD 49260·PAYLOAD·🇺🇸 United States

Lanzado Sep 27, 2021 desde Vandenberg Space Force Base

Loading…

Próximos Pases (próximas 24 horas)

TLE

ActualizadoSource: Space-Track

Época: Sep 14, 2026, 14:30 UTC

1 49260U 21088A   26257.60467046  .00000225  00000-0  60002-4 0  9996
2 49260  98.2202 326.6627 0001492  99.8399 260.2968 14.57111046264028

Sigue LANDSAT 9 en tiempo real con AllMySat

Download on the App Store